Theta_e
301 295 291 294 296 295 292 293 292 295 299 297 297 297 300 303 305 305 305 305 307 310 313 315 316 318 319 319 318 316 318 324 327 330 332 333 334 336 337 338 337 334 334 335
296 291 295 296 296 295 294 290 291 294 297 297 295 294 298 301 302 303 304 306 306 308 309 311 313 314 315 315 316 315 316 319 323 328 331 332 332 333 334 335 337 336 334 334
292 294 297 294 293 292 293 291 289 289 295 297 294 291 294 299 301 302 304 305 306 306 307 308 310 311 314 313 315 317 317 318 322 326 329 330 331 331 331 332 334 335 333 333
294 297 294 292 291 293 288 295 293 291 289 284 294 283 292 295 296 300 302 304 305 306 307 308 309 310 312 315 317 317 318 318 320 324 326 327 326 325 327 329 334 334 332 331
292 293 292 291 292 293 290 294 293 292 290 288 288 285 289 294 293 295 299 302 304 306 307 308 311 311 312 313 316 319 319 319 318 319 321 326 327 328 328 329 331 332 331 333
294 299 296 295 296 295 295 293 293 292 290 282 287 286 287 291 293 295 299 301 304 306 308 309 308 308 310 313 318 324 323 323 324 322 323 324 325 327 327 328 328 327 329 330
291 292 296 297 292 295 294 290 283 281 281 280 289 287 289 294 296 296 298 300 304 307 307 306 305 305 306 308 311 313 313 310 312 312 311 317 322 322 321 324 326 324 325 325
284 282 292 295 293 290 291 290 283 277 279 282 289 283 288 296 299 299 299 300 303 305 306 303 302 303 303 304 305 307 307 304 303 302 302 302 304 305 304 305 306 304 305 305
285 284 295 295 295 294 290 286 292 284 285 280 285 289 294 297 296 298 299 300 301 304 301 300 300 300 299 299 299 301 301 301 300 299 299 298 299 299 299 299 300 300 300 300
291 284 292 294 296 295 293 295 284 286 277 276 281 284 286 292 294 296 297 299 302 302 299 298 297 296 296 296 296 296 297 296 297 298 298 297 297 297 297 297 296 297 297 298
293 289 287 292 289 288 289 288 289 289 285 279 278 283 293 293 295 296 299 300 302 300 298 297 295 295 294 294 293 293 293 293 293 294 295 295 295 294 294 293 293 293 294 294
293 289 284 285 293 295 293 289 290 283 282 284 283 284 296 296 297 297 298 300 303 300 297 295 294 293 292 291 291 290 290 290 291 292 293 293 291 290 290 289 289 290 290 291
292 285 281 283 287 291 289 291 291 291 289 284 281 283 296 297 297 299 299 301 300 298 295 293 292 292 291 290 289 288 288 287 288 289 289 287 286 286 286 286 287 287 287 288
296 289 284 281 284 289 285 289 291 290 283 284 285 287 292 294 295 297 298 299 298 296 293 292 291 290 289 288 286 285 285 285 286 286 284 283 283 283 284 284 284 284 285 285
292 284 286 288 289 289 288 288 289 287 288 284 287 288 292 295 296 298 299 298 295 293 291 291 289 288 286 285 284 284 283 283 284 282 282 281 282 282 282 282 282 283 283 283
293 284 287 283 288 288 285 288 289 289 290 290 290 288 296 297 299 298 297 296 293 292 291 290 288 285 284 283 282 282 281 282 282 281 280 281 281 281 280 280 281 281 281 281
287 285 284 280 286 286 281 286 287 289 291 291 286 292 296 295 296 297 297 295 293 292 291 289 285 283 282 280 281 280 280 281 280 280 279 279 279 279 279 280 280 279 279 280
286 285 285 281 283 275 286 293 292 290 291 293 293 295 296 297 298 300 299 295 293 292 290 286 284 281 280 279 280 279 279 279 279 278 278 278 278 277 278 278 278 278 278 278
289 286 281 278 278 282 286 289 289 288 287 293 293 295 296 297 292 291 296 298 296 293 289 285 282 280 278 278 279 278 278 278 277 277 276 276 276 275 276 276 276 276 276 277
287 288 284 282 277 275 284 290 294 294 282 294 294 293 294 294 286 292 288 293 291 287 283 280 279 278 277 277 278 277 276 276 275 274 274 274 274 274 274 274 274 275 275 275
280 282 279 281 279 283 289 289 293 280 283 293 294 294 294 292 293 293 287 284 283 281 279 278 277 276 275 276 277 275 275 273 273 273 272 272 272 272 273 273 273 273 273 274
281 279 279 280 278 276 291 287 285 288 286 283 287 290 293 295 284 283 282 280 278 276 276 276 275 274 274 275 275 274 271 271 271 270 270 270 270 271 272 271 272 272 272 272
281 285 284 285 284 283 289 285 279 279 280 280 281 282 283 280 279 279 278 276 275 275 275 275 273 272 272 272 273 270 269 269 269 267 267 268 269 270 270 270 270 270 271 271
285 285 284 285 283 281 279 277 275 277 278 277 278 279 279 278 277 276 275 275 273 273 273 273 272 269 268 269 269 268 268 267 266 266 266 267 267 267 268 268 269 268 268 268
285 283 284 282 281 277 278 277 277 275 275 276 276 277 277 276 275 274 273 272 272 271 271 271 270 268 267 267 266 266 266 266 265 265 265 266 266 266 266 267 267 267 268 268
282 283 281 284 279 282 281 278 276 274 274 275 274 274 275 275 273 273 271 271 270 269 269 268 268 266 265 265 264 263 263 263 262 263 264 264 264 264 265 265 265 268 269 269
Wind_Speed
15 11 17 19 19 17 7 14 15 12 6 8 18 21 20 18 18 18 17 17 15 15 13 13 11 11 13 13 13 12 11 12 10 8 8 8 9 9 9 9 11 13 13 14
11 21 16 15 16 18 14 13 15 8 3 7 14 22 19 19 20 21 21 19 19 18 18 17 16 14 14 13 12 12 12 12 10 8 8 9 8 8 9 9 10 12 13 14
20 2 22 16 16 19 20 18 14 11 0 11 15 22 23 19 25 23 22 21 19 20 20 18 16 15 14 13 11 10 11 12 11 12 9 8 8 8 7 9 9 10 13 12
18 22 13 14 19 18 19 16 15 13 7 9 9 13 14 7 10 13 15 19 20 20 19 17 13 10 10 9 6 9 9 11 11 12 10 11 10 10 8 8 7 6 8 10
12 10 21 20 17 18 12 15 13 16 14 14 19 11 7 16 17 14 12 13 16 16 15 12 6 2 2 4 6 7 8 9 9 10 11 8 10 7 7 6 5 3 7 9
23 9 15 18 16 17 6 8 7 9 11 14 19 19 16 17 15 12 11 14 13 13 9 5 3 1 2 3 4 4 1 4 4 6 8 10 10 9 7 5 2 3 4 5
16 15 8 13 15 14 17 16 7 7 9 13 8 17 21 8 5 5 11 13 10 8 8 8 6 4 3 5 5 5 7 8 9 11 12 11 7 7 9 6 4 5 3 4
16 10 21 16 16 10 23 20 8 9 10 11 15 15 10 4 13 9 8 10 9 7 7 7 6 6 6 5 7 8 9 10 11 11 12 10 11 7 7 9 6 6 5 5
15 18 18 17 16 17 20 23 16 12 1 4 10 16 11 8 5 12 13 14 13 12 9 9 8 8 8 7 8 8 9 10 11 11 10 11 10 10 9 10 8 6 8 7
13 10 14 21 16 19 15 14 13 12 8 11 12 16 12 9 13 16 16 14 7 9 11 11 10 9 8 9 8 9 10 11 10 11 10 9 10 10 9 9 10 10 9 9
19 13 6 17 22 21 15 13 11 9 11 8 12 12 13 19 17 15 12 15 13 13 12 11 10 9 8 8 8 9 9 9 9 9 9 10 10 11 11 10 10 11 10 11
26 10 13 19 17 21 23 24 25 9 15 13 16 15 6 5 4 6 13 13 9 14 14 12 11 10 9 8 8 8 8 8 8 8 9 10 10 10 10 10 10 11 11 11
17 9 9 11 12 11 24 22 19 22 13 16 14 14 16 14 7 3 8 6 11 14 14 13 12 10 9 8 7 7 8 8 7 8 9 10 10 10 11 10 10 10 10 11
20 19 16 19 21 13 18 23 25 21 17 19 16 21 23 19 10 13 9 10 12 13 14 13 11 10 8 7 6 6 7 7 7 8 9 9 9 9 10 10 10 10 9 10
26 20 27 28 27 24 20 24 26 27 26 20 26 27 23 21 20 15 13 13 16 17 17 16 13 10 9 7 6 6 6 6 6 7 8 8 8 8 9 10 9 9 9 10
21 16 20 20 27 26 30 20 22 26 30 28 25 22 23 25 18 12 16 17 17 19 19 17 14 12 9 7 6 5 6 6 6 8 8 8 7 8 9 7 9 9 10 10
17 16 13 19 26 27 28 29 29 25 26 26 28 30 27 27 25 15 14 19 19 19 19 16 14 11 9 7 6 6 6 6 7 7 7 7 7 8 9 8 8 9 9 9
13 17 11 14 12 20 15 26 27 29 26 25 28 25 24 27 28 15 11 17 19 17 16 15 13 11 9 7 7 7 6 7 8 7 6 6 7 8 8 8 9 10 9 10
13 14 13 16 21 25 14 23 26 26 32 30 27 27 30 27 3 6 11 18 16 18 15 14 13 12 10 8 8 8 7 7 7 7 7 6 9 9 10 10 10 10 10 10
14 10 8 5 9 8 8 22 16 18 20 23 31 32 28 14 10 19 15 8 13 15 15 15 15 13 11 9 9 8 7 6 9 7 4 7 8 8 8 8 8 8 8 9
7 7 11 12 12 7 13 5 9 13 13 21 21 26 30 17 24 2 15 15 15 15 17 16 15 12 11 10 10 9 7 8 7 1 4 9 7 7 7 8 7 8 9 9
12 9 7 8 8 15 3 9 20 10 4 4 3 8 16 14 10 16 17 17 16 17 17 16 14 12 10 8 8 10 9 5 4 6 6 7 6 6 6 8 8 8 8 8
7 10 4 10 8 3 5 6 6 2 4 3 5 6 9 15 13 17 16 17 16 16 13 11 12 13 10 8 6 10 7 6 5 4 7 5 5 6 7 7 8 7 7 7
3 1 4 1 2 4 5 3 2 1 2 1 1 4 9 15 15 14 13 14 13 13 13 11 13 12 11 8 9 8 6 5 5 6 5 5 6 7 7 6 6 6 6 7
2 3 4 7 5 4 13 11 5 4 5 10 6 5 8 14 15 15 13 12 12 12 12 11 12 11 10 8 8 7 6 6 4 4 4 5 6 7 6 6 6 6 7 8
7 8 8 5 3 3 1 7 13 11 8 8 11 12 10 12 15 15 13 11 11 11 11 10 10 11 9 8 8 6 5 5 3 3 4 4 5 5 5 6 6 9 11 14
Wind_Direction
195 207 208 207 215 233 322 224 236 219 218 265 244 255 253 249 237 242 256 263 255 247 247 246 243 236 233 246 252 251 242 228 222 220 218 220 227 224 227 225 207 200 222 219
187 227 222 224 223 228 226 249 231 249 268 244 273 269 263 254 251 250 250 248 253 257 254 252 251 249 248 251 249 248 242 240 229 222 221 225 221 230 238 244 229 204 218 224
215 203 205 213 216 220 231 231 237 241 304 253 279 274 260 244 241 244 245 250 255 258 260 258 254 247 241 251 255 250 242 239 232 219 223 223 230 240 218 224 228 228 226 225
230 236 202 196 223 214 230 222 243 249 237 258 169 286 277 287 262 216 246 240 242 249 252 256 258 262 263 264 280 265 255 243 235 232 221 230 226 231 234 239 224 219 214 227
211 203 208 216 213 211 238 229 220 231 242 267 249 263 265 228 239 212 227 232 230 236 244 250 254 294 286 303 275 263 258 257 257 249 242 231 235 253 259 243 222 197 230 225
224 191 232 220 215 214 192 167 177 219 229 243 239 236 252 236 241 241 222 233 227 221 223 221 106 178 94 21 15 358 331 22 307 247 239 238 240 236 248 238 211 211 225 222
221 218 216 218 212 202 189 176 179 210 208 242 211 224 245 291 249 292 266 221 225 194 200 177 169 126 59 60 62 60 70 59 49 50 48 32 20 33 35 25 25 37 11 9
212 209 204 194 205 183 201 195 199 215 222 255 203 237 234 228 248 215 206 234 230 180 166 147 137 126 103 73 73 77 81 72 67 64 59 52 52 58 55 48 52 52 44 32
205 226 176 188 201 196 194 220 227 291 297 271 239 239 265 238 222 211 230 220 209 179 157 151 147 126 110 92 77 81 82 78 73 72 66 59 55 59 58 50 46 43 33 23
229 231 198 191 206 220 195 200 204 221 225 230 248 253 251 191 221 230 226 236 227 145 163 160 147 129 117 108 96 84 79 77 73 71 69 67 62 55 54 48 41 30 27 14
233 239 172 169 202 190 205 220 218 222 232 246 261 249 242 249 239 213 230 236 205 169 171 158 145 132 121 109 96 88 79 74 70 68 67 67 61 53 51 47 37 24 19 12
211 229 223 208 210 217 208 208 204 196 210 223 251 249 130 73 22 264 242 240 157 169 167 160 153 146 135 116 100 87 76 69 62 64 66 61 55 51 49 43 32 24 17 8
185 211 216 218 216 236 221 214 222 234 252 231 225 254 248 240 198 236 256 226 158 170 168 163 159 156 141 123 105 87 67 59 51 57 60 52 46 40 37 31 26 25 23 14
201 218 224 228 226 188 205 224 222 226 233 237 238 249 252 253 249 228 218 190 179 177 171 174 168 156 138 125 100 86 71 52 52 56 55 47 39 41 35 25 25 18 19 24
218 226 230 242 253 261 217 215 219 220 227 225 235 237 252 255 254 242 197 187 180 185 184 182 171 161 150 137 120 103 79 60 58 62 58 48 38 37 43 35 20 17 15 28
217 235 231 242 243 242 251 245 236 226 227 234 245 248 248 256 252 221 204 187 188 195 191 183 169 163 157 145 125 111 90 75 66 65 59 47 45 46 44 33 24 18 15 17
219 229 223 228 231 238 243 240 237 237 231 230 232 237 241 250 252 236 191 197 194 193 187 175 171 165 150 137 132 111 98 91 78 73 61 47 39 41 30 25 22 16 11 3
208 221 220 237 238 241 238 239 236 238 239 238 240 246 247 243 252 246 208 193 200 188 168 168 164 150 138 134 129 118 101 88 73 57 57 47 35 37 23 18 15 7 4 355
217 220 240 238 238 250 274 227 222 218 229 231 235 237 242 248 344 264 218 201 193 177 163 151 152 144 141 139 131 118 112 99 91 61 12 27 30 22 15 11 2 357 351 342
219 235 234 219 228 206 194 223 228 232 235 237 229 239 241 220 232 245 162 198 147 136 139 144 140 140 140 141 135 130 116 110 78 54 319 37 21 14 8 360 352 343 333 325
196 225 233 246 244 257 258 130 142 193 223 241 234 237 237 218 224 221 140 133 135 140 144 139 145 143 137 142 142 127 114 79 73 271 8 40 9 350 3 356 343 336 332 332
182 180 204 222 250 247 175 139 191 222 35 337 322 276 254 216 115 136 143 143 144 144 144 147 139 133 126 127 131 121 101 91 46 15 9 33 359 351 5 352 345 342 334 330
223 217 218 210 214 41 161 234 105 104 338 17 329 335 106 125 138 143 145 145 146 144 141 141 134 125 112 103 115 101 70 53 42 15 20 1 357 9 356 351 344 338 342 338
257 104 240 24 179 259 254 242 289 318 125 74 286 155 128 133 136 138 144 144 143 140 140 134 135 126 114 102 88 86 77 42 41 21 350 357 6 358 360 346 346 344 342 342
4 125 222 255 248 278 229 226 206 133 113 110 97 127 130 136 137 140 142 135 136 135 133 136 131 123 116 107 94 71 56 39 29 358 0 13 8 359 347 347 338 333 329 330
180 204 200 239 3 280 159 203 166 159 151 153 141 127 134 141 137 139 132 130 132 135 129 125 120 117 112 108 100 82 62 48 19 15 16 12 354 345 339 337 325 321 323 326